STARLINK-1618 (46125 NORAD) Tracking and Keplerian Element Data

This shows tracking and keplerian element data for the satellite.

Feedback or suggestion? Click here.




ElementValue
Catalog46125
NameSTARLINK-1618
Epoch Orbit1616
Epoch Day332.91668981
Epoch Year2020
RAAN330.7235
Inclination53
Eccentricity0.0001526
Argument of Perigee61.9104
Mean Anonmoly48.4308
Mean Motion15.05442938
Decay Rate0.00219533
L11 46125U 20057J 20332.91668981 .00219533 00000-0 14677-1 0 9999
L22 46125 53.0000 330.7235 0001526 61.9104 48.4308 15.05442938 16168

Live tracking and technical data element details for STARLINK-1618 (NORAD 46125). STARLINK-1618 can be tracked NOW for your location showing map with azimuth and elevation plus other details from your city location.

Track the satellite on the map from your city or location and see movement details for azimuth, elevation, latitude, longitude, range, height, and movement on the map or in text.







IsCatalogInMostPopularTable: catalog: 46125, numindb: 13
Update: records affected: 1



GetName: 46125 STARLINK-1618

Hit Count: updated at: Sun, 29 Nov 2020 09:56:48 GMT